NOAA 16 DEB

Satellite information

Favourite Embed

Satellite Type and Status

DEBRISIN ORBIT

Key statistics

Satellite NOAA 16 DEB at a glance.

Uptime

9215

Days in orbit

Revolutions

≈ 14.6

Per day

Orbit

SSO

Sun Synchronous Orbit

Inclination

98.9

Latest

Satellite identification and parameters

Extended collection of information and parameters for NOAA 16 DEB.

Object identification

Identified? True

Debris? True

Object name: NOAA 16 DEB

International designator: 2000-055TL

Object number (NORAD): 42416

Object ID (CCSDS): 42416

Country: UNITED STATES OF AMERICA (US)

Current information (Y/N): Y

RCS size: SMALL

Orbital parameters

Period: 98.906 minutes

Inclination: 98.8529 deg

SMA: 7084.507 km

Apoapsis: 713.255 km

Periapsis: 699.489 km

RAAN: 119.7991 deg

Eccentricy: 0.00097153

Argument of periapsis: 122.2633 deg

Mean anomaly: 237.9505 deg

Mean motion: 14.55922615 rev/day

Mean motion (dot): 0.00021488 rev/day2

B* drag term: 0.0048853323 1/REarth

Two-line elements (TLE)

Creation date: Dec. 14, 2025, 3:07 a.m.

Reference frame: TEME

Reference center: EARTH

Epoch: Dec. 13, 2025, 2:37 p.m. UTC

TLE line 0: 0 NOAA 16 DEB

TLE line 1: 1 42416U 00055TL 25347.60928540 .00021488 00000-0 48853-2 0 9995

TLE line 2: 2 42416 98.8529 119.7991 0009715 122.2633 237.9505 14.55922615502792

Live tracking on map

Real-time ground track for satellite NOAA 16 DEB.

In-orbit conjunctions

A list of the most updated potential collisions computed for object NOAA 16 DEB.

Target Orbit TCA Probability of collision Miss distance Type
COSMOS 2251 DEB LEO 2025-12-04 00:48:11 0.0001301678 29.0 (m) DEBRIS
CZ-6A DEB LEO 2025-02-05 14:29:29 0.0002667009 149.0 (m) DEBRIS

Associated space launch

The NOAA K, L and M POES satellites begin the fifth generation of improved environmental monitoring in support of NOAA missions. The instrument payload has significant improvements and additions/deletions. The instrument changes have effected the spacecraft subsystems and data formats.

NOAA 16 DEB was lifted into orbit during the mission ‘Titan II SLV | NOAA 16’, on board a Titan II SLV space rocket.

The launch took place on Sept. 21, 2000, 10:22 a.m. from Space Launch Complex 4W.

For more information about the launch, click the button.

Launch to space Titan II SLV | NOAA 16
Titan II SLV | NOAA 16

Agency: N/A

Status: Launch Successful

Launch date: Sept. 21, 2000, 10:22 a.m. UTC

Rocket: Titan II SLV

Launch pad: Space Launch Complex 4W

Location: Vandenberg SFB, CA, USA

...

Latest news about this satellite

There are no fresh news available about this satellite. Check back as we update our databases every day.


Newsletter sign-up

Weekly statistics, charts and insights to help you stay on top of the space industry.